World > North America > United States > Texas

Spring Creek, Texas Regional Weather

Lat: 31.35N, Lon: 98.82W
Wx Zone: TXZ155Web Search
Spring Creek Weather Warning NWS WEATHER ALERT FOR THE SPRING CREEK, TX AREA - Issued: 202 PM CDT Thu Apr 15 2021 Spring Creek Weather Warning  

Our weather pages are very print friendly and they make great conversation starters.

Feedback


°F Click to change Spring Creek hourly weather to Imperial units.Click to change Spring Creek hourly weather to Metric units. °C
Spring Creek Weather Map
UTC Time: 4/16/2021, 08:54
Your Time:

Spring Creek, TX Regional Weather

Expires:202104160900;;630712
ASUS44 KFWD 160815
RWRTX 
NORTH TEXAS HOURLY WEATHER ROUNDUP
NATIONAL WEATHER SERVICE FORT WORTH TX
300 AM CDT FRI APR 16 2021

NOTE: "FAIR" INDICATES FEW OR NO CLOUDS BELOW 12,000 FEET WITH NO
SIGNIFICANT WEATHER AND/OR OBSTRUCTIONS TO VISIBILITY.


TXZ083>090-098>101-113>116-127>130-139>142-154-155-160900-
WESTERN NORTH TEXAS
  
CITY           SKY/WX    TMP DP  RH WIND       PRES   REMARKS
WICHITA FALLS  CLOUDY    53  52  96 E7        29.86F                  
WF-KICKAPOO    CLOUDY    53  52  96 E6        29.88F                  
VERNON         CLOUDY    51  51 100 E5        29.88F                  
ABILENE        CLOUDY    55  54  96 SE8       29.84F FOG              
ABILENE-DYESS  CLOUDY    55  54  96 E7        29.83F FOG              
BRECKENRIDGE   CLOUDY    56  56 100 E3        29.84F FOG              
CISCO          FOG       55  55 100 SE8       29.83F VSB 1            
EASTLAND       CLOUDY    54 N/A N/A SE7       29.85S                  
RANGER         FOG       55  55 100 CALM      29.85F VSB 1/4          
MINERAL WELLS  CLOUDY    56  55  97 SE6       29.84F FOG              
STEPHENVILLE   CLOUDY    57  55  94 E7        29.87F VSB 1/2          
COMANCHE       CLOUDY    57  57 100 SE7       29.85F FOG              
BROWNWOOD      CLOUDY    57  57 100 SE5       29.84F VSB 1            
COLEMAN        CLOUDY    57  56  97 SE3       29.84F FOG              
BRADY          CLOUDY    57  57 100 SE7       29.82F FOG              
$$


SKY/WX - Weather  TMP - Temperature  DP - Dew Point  RH - Relative Humidity
WIND - Wind Direction/Speed PRES - Barometric Pressure VSB - Visibility
WCI - Wind Chill Index E13G22 Wind - East Wind 13 mph/Gusts of 22 mph